Location: Bonny Doon Airfield
(37.0704°N, 122.1252°W)
Time: 06:25:55
(UTC-07:00)

BREEZE M DEB (TANK) - Visible Passes

Search period start: 22 September 2017 00:00
Search period end: 02 October 2017 00:00
Orbit: 331 x 13686 km, 49.5° (Epoch: 21 September)

Date Brightness Start Highest point End Pass type
(mag) Time Alt. Az. Time Alt. Az. Time Alt. Az.
22 Sep 2.9 20:29:18 10° NW 20:35:15 52° NNE 20:35:50 45° ENE visible
24 Sep 4.4 19:30:41 10° NW 19:38:48 37° NNE 19:41:48 11° E visible
25 Sep 4.7 21:20:36 10° WNW 21:23:13 26° W 21:23:13 26° W visible
27 Sep 2.5 20:22:49 10° NW 20:28:37 87° NNE 20:29:11 58° ESE visible
29 Sep 3.7 19:24:24 10° NW 19:32:23 49° NNE 19:35:09 12° E visible
30 Sep 5.1 21:14:28 10° WNW 21:16:35 17° WSW 21:16:35 17° WSW visible
